カタログに戻る

STARLINK-34408

運用中通信VLEO
NORAD 64363·PAYLOAD·🇺🇸 United States

打ち上げ Jun 13, 2025 から Vandenberg Space Force Base

Loading…

次のパス (今後24時間)

TLE

最新Source: CelesTrak SupGP

元期: Sep 14, 2026, 23:00 UTC

1 64363C 25126V   26257.95881944  .00071678  00000+0  24941-2 0  2575
2 64363  69.9998 275.6270 0003274 267.0682  68.9398 15.29533981    10

AllMySatでSTARLINK-34408をリアルタイム追跡

Download on the App Store